QPF
0.02 0.03 0.06 0.10 0.12 0.15 0.20 0.31 0.39 0.35 0.31 0.21 0.14 0.12 0.11 0.07 0.04 0.02 0.02 0.02 0.01 0.01 0.01 0.01 0.01 0.02 0.03 0.03 0.02 0.02 0.03 0.04 0.02 0.05 0.10 0.07 0.04 0.03 0.03 0.04 0.04 0.05 0.03
0.03 0.05 0.06 0.07 0.09 0.12 0.16 0.25 0.33 0.31 0.26 0.19 0.13 0.12 0.11 0.08 0.06 0.04 0.03 0.02 0.01 0.01 0.01 0.02 0.02 0.01 0.02 0.02 0.02 0.03 0.03 0.03 0.02 0.04 0.09 0.11 0.13 0.10 0.03 0.02 0.02 0.02 0.01
0.03 0.06 0.05 0.07 0.08 0.11 0.14 0.18 0.21 0.25 0.25 0.22 0.16 0.14 0.12 0.09 0.06 0.06 0.05 0.04 0.03 0.03 0.02 0.01 0.01 0.01 0.01 0.02 0.02 0.02 0.03 0.03 0.02 0.02 0.04 0.08 0.13 0.11 0.09 0.04 0.02 0.02 0.02
0.02 0.04 0.04 0.06 0.07 0.08 0.12 0.16 0.17 0.23 0.22 0.20 0.16 0.11 0.07 0.06 0.05 0.05 0.05 0.04 0.04 0.04 0.02 0.01 0.01 0.01 0.01 0.01 0.01 0.01 0.02 0.02 0.03 0.02 0.02 0.03 0.04 0.06 0.09 0.07 0.04 0.02 0.01
0.01 0.02 0.03 0.05 0.08 0.08 0.10 0.14 0.19 0.23 0.20 0.18 0.16 0.13 0.11 0.09 0.06 0.06 0.06 0.05 0.05 0.04 0.02 0.00 0.00 0.01 0.01 0.00 0.00 0.01 0.01 0.01 0.02 0.02 0.02 0.02 0.01 0.01 0.02 0.05 0.04 0.02 0.01
0.01 0.01 0.02 0.05 0.08 0.08 0.08 0.11 0.15 0.19 0.19 0.18 0.15 0.14 0.13 0.12 0.08 0.05 0.04 0.05 0.05 0.04 0.03 0.01 0.01 0.01 0.01 0.00 0.01 0.01 0.01 0.01 0.01 0.01 0.01 0.01 0.01 0.00 0.01 0.01 0.01 0.01 0.00
0.00 0.01 0.01 0.03 0.07 0.07 0.07 0.09 0.13 0.13 0.15 0.16 0.15 0.15 0.15 0.11 0.09 0.06 0.05 0.05 0.05 0.04 0.03 0.02 0.01 0.01 0.01 0.00 0.01 0.01 0.01 0.01 0.01 0.01 0.01 0.00 0.00 0.00 0.00 0.00 0.01 0.01 0.01
0.00 0.01 0.01 0.01 0.04 0.06 0.06 0.08 0.10 0.11 0.14 0.14 0.14 0.15 0.15 0.11 0.10 0.09 0.06 0.04 0.03 0.03 0.03 0.02 0.01 0.01 0.01 0.00 0.01 0.01 0.01 0.01 0.01 0.01 0.01 0.01 0.00 0.00 0.00 0.00 0.00 0.01 0.01
0.00 0.00 0.01 0.01 0.02 0.06 0.06 0.06 0.07 0.08 0.10 0.10 0.12 0.12 0.13 0.13 0.14 0.10 0.06 0.02 0.03 0.04 0.06 0.04 0.03 0.02 0.01 0.01 0.02 0.01 0.02 0.02 0.02 0.01 0.01 0.01 0.01 0.00 0.00 0.00 0.00 0.00 0.01
0.00 0.00 0.01 0.01 0.02 0.04 0.04 0.04 0.05 0.06 0.06 0.08 0.09 0.09 0.11 0.13 0.15 0.12 0.09 0.07 0.05 0.06 0.06 0.05 0.04 0.03 0.03 0.04 0.04 0.03 0.03 0.02 0.02 0.02 0.02 0.02 0.01 0.02 0.01 0.01 0.00 0.00 0.01
0.00 0.00 0.00 0.01 0.01 0.01 0.02 0.02 0.05 0.07 0.07 0.08 0.09 0.11 0.11 0.10 0.12 0.13 0.11 0.09 0.07 0.08 0.07 0.07 0.06 0.06 0.05 0.06 0.05 0.03 0.03 0.03 0.04 0.03 0.03 0.03 0.03 0.03 0.03 0.02 0.03 0.02 0.02
0.00 0.00 0.00 0.00 0.00 0.01 0.01 0.01 0.03 0.06 0.07 0.09 0.10 0.09 0.10 0.14 0.14 0.12 0.12 0.11 0.11 0.10 0.09 0.09 0.09 0.09 0.08 0.08 0.07 0.06 0.05 0.05 0.06 0.06 0.06 0.05 0.05 0.05 0.04 0.04 0.05 0.04 0.05
0.00 0.00 0.00 0.00 0.00 0.01 0.02 0.02 0.03 0.04 0.06 0.08 0.10 0.11 0.12 0.16 0.17 0.16 0.16 0.15 0.13 0.11 0.11 0.11 0.11 0.12 0.12 0.11 0.10 0.09 0.07 0.07 0.07 0.07 0.07 0.06 0.05 0.05 0.05 0.05 0.06 0.05 0.05
0.00 0.01 0.01 0.01 0.01 0.02 0.02 0.02 0.03 0.03 0.05 0.09 0.12 0.13 0.14 0.18 0.19 0.18 0.19 0.17 0.16 0.14 0.13 0.12 0.11 0.10 0.08 0.08 0.08 0.08 0.08 0.09 0.09 0.10 0.09 0.07 0.07 0.06 0.07 0.07 0.08 0.07 0.07
0.03 0.03 0.02 0.02 0.02 0.02 0.02 0.02 0.02 0.04 0.07 0.11 0.11 0.13 0.15 0.18 0.19 0.18 0.18 0.18 0.16 0.14 0.14 0.13 0.12 0.12 0.11 0.09 0.10 0.11 0.10 0.12 0.10 0.10 0.10 0.09 0.07 0.05 0.04 0.04 0.05 0.06 0.06
0.06 0.04 0.03 0.02 0.03 0.03 0.02 0.03 0.05 0.07 0.09 0.10 0.09 0.11 0.13 0.14 0.16 0.16 0.16 0.16 0.14 0.12 0.13 0.13 0.13 0.13 0.10 0.10 0.08 0.06 0.07 0.08 0.09 0.08 0.08 0.07 0.06 0.05 0.04 0.03 0.02 0.03 0.03
0.07 0.06 0.06 0.06 0.05 0.05 0.04 0.05 0.06 0.08 0.10 0.10 0.10 0.10 0.11 0.13 0.15 0.15 0.15 0.14 0.13 0.12 0.13 0.15 0.14 0.11 0.08 0.05 0.02 0.02 0.03 0.04 0.04 0.05 0.05 0.05 0.05 0.05 0.05 0.05 0.04 0.03 0.02
0.07 0.07 0.06 0.05 0.05 0.04 0.04 0.05 0.06 0.08 0.09 0.10 0.11 0.13 0.13 0.13 0.14 0.14 0.14 0.13 0.14 0.15 0.14 0.12 0.09 0.06 0.03 0.02 0.01 0.00 0.01 0.01 0.02 0.02 0.02 0.03 0.03 0.03 0.03 0.04 0.04 0.03 0.03
0.07 0.06 0.05 0.05 0.05 0.06 0.07 0.07 0.08 0.09 0.10 0.12 0.13 0.13 0.14 0.13 0.11 0.10 0.08 0.07 0.07 0.07 0.05 0.02 0.02 0.02 0.01 0.01 0.01 0.01 0.01 0.01 0.01 0.01 0.01 0.01 0.01 0.01 0.01 0.01 0.01 0.02 0.02
0.07 0.09 0.09 0.07 0.07 0.08 0.09 0.08 0.06 0.06 0.07 0.11 0.14 0.13 0.11 0.10 0.08 0.06 0.04 0.03 0.02 0.02 0.02 0.01 0.01 0.01 0.01 0.01 0.00 0.00 0.01 0.02 0.02 0.01 0.01 0.00 0.00 0.00 0.00 0.00 0.00 0.00 0.00
0.05 0.08 0.09 0.09 0.08 0.07 0.07 0.08 0.08 0.08 0.09 0.10 0.12 0.12 0.10 0.08 0.06 0.04 0.02 0.01 0.01 0.01 0.01 0.00 0.01 0.00 0.00 0.00 0.00 0.00 0.00 0.00 0.00 0.00 0.00 0.00 0.00 0.00 0.00 0.00 0.00 0.00 0.00
0.04 0.06 0.07 0.07 0.06 0.06 0.07 0.07 0.08 0.08 0.08 0.09 0.09 0.08 0.06 0.05 0.04 0.03 0.02 0.01 0.01 0.01 0.01 0.01 0.01 0.01 0.00 0.00 0.00 0.00 0.00 0.00 0.00 0.00 0.00 0.00 0.00 0.00 0.00 0.00 0.00 0.00 0.00
0.03 0.04 0.05 0.07 0.07 0.08 0.07 0.08 0.07 0.07 0.08 0.08 0.07 0.06 0.05 0.05 0.04 0.03 0.02 0.01 0.01 0.01 0.01 0.01 0.01 0.00 0.00 0.00 0.00 0.00 0.00 0.00 0.00 0.00 0.00 0.00 0.00 0.00 0.00 0.00 0.00 0.00 0.00
0.04 0.04 0.04 0.06 0.07 0.07 0.08 0.09 0.09 0.08 0.06 0.05 0.05 0.04 0.03 0.02 0.02 0.01 0.01 0.01 0.01 0.00 0.00 0.00 0.00 0.00 0.00 0.00 0.00 0.00 0.00 0.00 0.00 0.00 0.00 0.00 0.00 0.00 0.00 0.00 0.00 0.00 0.00
0.07 0.06 0.05 0.05 0.06 0.06 0.06 0.07 0.08 0.08 0.06 0.05 0.04 0.03 0.02 0.01 0.01 0.00 0.00 0.00 0.00 0.00 0.00 0.00 0.00 0.00 0.00 0.00 0.00 0.00 0.00 0.00 0.00 0.00 0.00 0.00 0.00 0.00 0.00 0.00 0.00 0.00 0.00
0.09 0.08 0.07 0.07 0.07 0.07 0.08 0.07 0.06 0.06 0.05 0.04 0.03 0.02 0.01 0.01 0.00 0.00 0.00 0.00 0.00 0.00 0.00 0.00 0.00 0.00 0.00 0.00 0.00 0.00 0.00 0.00 0.00 0.00 0.00 0.00 0.00 0.00 0.00 0.00 0.00 0.00 0.00
MSLP
1005.13 1005.73 1006.37 1006.99 1007.58 1008.13 1008.63 1009.11 1009.58 1010.07 1010.56 1011.05 1011.53 1011.98 1012.38 1012.73 1013.03 1013.29 1013.52 1013.75 1013.98 1014.23 1014.48 1014.74 1014.99 1015.24 1015.46 1015.68 1015.89 1016.10 1016.34 1016.59 1016.86 1017.13 1017.39 1017.59 1017.74 1017.81 1017.81 1017.75 1017.67 1017.60 1017.58
1005.29 1005.93 1006.59 1007.21 1007.78 1008.28 1008.74 1009.19 1009.64 1010.12 1010.63 1011.16 1011.67 1012.15 1012.57 1012.92 1013.19 1013.42 1013.62 1013.81 1014.03 1014.27 1014.54 1014.83 1015.11 1015.38 1015.62 1015.83 1016.01 1016.20 1016.40 1016.62 1016.87 1017.13 1017.39 1017.62 1017.79 1017.88 1017.88 1017.82 1017.71 1017.59 1017.51
1005.31 1005.99 1006.66 1007.29 1007.84 1008.31 1008.73 1009.13 1009.56 1010.04 1010.57 1011.14 1011.70 1012.22 1012.68 1013.05 1013.33 1013.55 1013.73 1013.91 1014.12 1014.36 1014.64 1014.95 1015.26 1015.55 1015.80 1016.00 1016.17 1016.33 1016.49 1016.67 1016.90 1017.15 1017.41 1017.65 1017.84 1017.96 1017.99 1017.94 1017.82 1017.69 1017.56
1005.18 1005.88 1006.58 1007.22 1007.75 1008.19 1008.58 1008.94 1009.35 1009.82 1010.37 1010.97 1011.58 1012.16 1012.68 1013.09 1013.41 1013.64 1013.83 1014.01 1014.22 1014.47 1014.76 1015.09 1015.42 1015.72 1015.98 1016.19 1016.35 1016.49 1016.62 1016.77 1016.96 1017.19 1017.44 1017.69 1017.90 1018.04 1018.10 1018.07 1017.97 1017.82 1017.67
1004.93 1005.66 1006.39 1007.04 1007.57 1007.98 1008.33 1008.66 1009.04 1009.50 1010.05 1010.68 1011.34 1011.99 1012.56 1013.04 1013.41 1013.68 1013.89 1014.09 1014.30 1014.55 1014.85 1015.19 1015.54 1015.86 1016.14 1016.36 1016.53 1016.65 1016.77 1016.89 1017.06 1017.26 1017.49 1017.72 1017.93 1018.09 1018.17 1018.16 1018.08 1017.93 1017.77
1004.64 1005.41 1006.17 1006.83 1007.36 1007.76 1008.08 1008.37 1008.71 1009.15 1009.70 1010.34 1011.04 1011.74 1012.38 1012.92 1013.34 1013.66 1013.90 1014.12 1014.34 1014.59 1014.90 1015.24 1015.60 1015.94 1016.24 1016.48 1016.66 1016.78 1016.89 1017.00 1017.13 1017.30 1017.50 1017.71 1017.91 1018.06 1018.14 1018.15 1018.08 1017.95 1017.79
1004.40 1005.20 1006.00 1006.69 1007.22 1007.62 1007.91 1008.17 1008.47 1008.88 1009.40 1010.05 1010.76 1011.49 1012.17 1012.76 1013.24 1013.60 1013.87 1014.10 1014.32 1014.57 1014.87 1015.21 1015.57 1015.92 1016.23 1016.49 1016.69 1016.83 1016.94 1017.03 1017.14 1017.28 1017.44 1017.61 1017.78 1017.91 1017.99 1018.01 1017.95 1017.84 1017.69
1004.27 1005.11 1005.94 1006.66 1007.22 1007.62 1007.89 1008.13 1008.40 1008.77 1009.27 1009.89 1010.59 1011.33 1012.03 1012.65 1013.15 1013.54 1013.83 1014.06 1014.28 1014.51 1014.79 1015.11 1015.46 1015.81 1016.13 1016.40 1016.61 1016.76 1016.87 1016.96 1017.05 1017.15 1017.27 1017.40 1017.54 1017.65 1017.72 1017.74 1017.70 1017.61 1017.49
1004.26 1005.15 1006.02 1006.78 1007.36 1007.78 1008.06 1008.29 1008.54 1008.88 1009.34 1009.93 1010.61 1011.32 1012.02 1012.63 1013.14 1013.53 1013.82 1014.04 1014.24 1014.45 1014.69 1014.98 1015.30 1015.63 1015.95 1016.22 1016.43 1016.59 1016.70 1016.78 1016.85 1016.93 1017.01 1017.11 1017.22 1017.31 1017.37 1017.39 1017.38 1017.32 1017.24
1004.35 1005.27 1006.18 1006.98 1007.61 1008.06 1008.38 1008.62 1008.88 1009.21 1009.65 1010.20 1010.84 1011.51 1012.17 1012.76 1013.24 1013.61 1013.88 1014.08 1014.25 1014.43 1014.64 1014.89 1015.17 1015.47 1015.76 1016.01 1016.21 1016.36 1016.47 1016.54 1016.59 1016.65 1016.71 1016.79 1016.88 1016.96 1017.02 1017.07 1017.08 1017.07 1017.03
1004.45 1005.41 1006.35 1007.18 1007.86 1008.37 1008.75 1009.05 1009.35 1009.69 1010.13 1010.66 1011.25 1011.88 1012.49 1013.03 1013.46 1013.80 1014.04 1014.22 1014.37 1014.52 1014.70 1014.91 1015.15 1015.40 1015.64 1015.86 1016.03 1016.16 1016.24 1016.30 1016.34 1016.39 1016.45 1016.52 1016.60 1016.69 1016.78 1016.85 1016.90 1016.93 1016.95
1004.50 1005.45 1006.41 1007.28 1008.01 1008.60 1009.07 1009.46 1009.83 1010.23 1010.69 1011.21 1011.78 1012.36 1012.91 1013.39 1013.79 1014.08 1014.30 1014.46 1014.60 1014.74 1014.89 1015.07 1015.28 1015.48 1015.68 1015.85 1015.97 1016.06 1016.12 1016.16 1016.19 1016.23 1016.29 1016.38 1016.48 1016.60 1016.71 1016.82 1016.91 1016.98 1017.04
1004.42 1005.35 1006.29 1007.18 1007.96 1008.63 1009.21 1009.72 1010.20 1010.69 1011.21 1011.76 1012.31 1012.86 1013.36 1013.79 1014.14 1014.41 1014.62 1014.78 1014.92 1015.07 1015.22 1015.40 1015.58 1015.76 1015.91 1016.02 1016.10 1016.14 1016.16 1016.17 1016.19 1016.24 1016.31 1016.42 1016.55 1016.70 1016.85 1016.99 1017.11 1017.22 1017.30
1004.20 1005.06 1005.96 1006.84 1007.66 1008.42 1009.11 1009.76 1010.37 1010.98 1011.58 1012.17 1012.74 1013.27 1013.73 1014.13 1014.45 1014.70 1014.91 1015.10 1015.28 1015.46 1015.65 1015.85 1016.04 1016.19 1016.31 1016.39 1016.42 1016.41 1016.39 1016.37 1016.38 1016.43 1016.52 1016.65 1016.82 1017.00 1017.18 1017.34 1017.48 1017.60 1017.68
1003.88 1004.63 1005.45 1006.29 1007.13 1007.96 1008.76 1009.54 1010.30 1011.03 1011.73 1012.39 1012.99 1013.51 1013.96 1014.33 1014.64 1014.90 1015.14 1015.37 1015.61 1015.86 1016.11 1016.36 1016.57 1016.74 1016.85 1016.90 1016.89 1016.84 1016.78 1016.74 1016.73 1016.78 1016.88 1017.04 1017.23 1017.44 1017.64 1017.81 1017.95 1018.05 1018.11
1003.52 1004.14 1004.85 1005.63 1006.46 1007.33 1008.22 1009.12 1010.01 1010.86 1011.66 1012.38 1013.02 1013.56 1014.01 1014.38 1014.69 1014.97 1015.24 1015.54 1015.85 1016.19 1016.53 1016.85 1017.12 1017.32 1017.45 1017.49 1017.46 1017.38 1017.29 1017.23 1017.20 1017.25 1017.36 1017.53 1017.73 1017.95 1018.15 1018.31 1018.42 1018.48 1018.49
1003.25 1003.72 1004.30 1004.99 1005.78 1006.66 1007.61 1008.59 1009.58 1010.53 1011.42 1012.21 1012.88 1013.45 1013.90 1014.28 1014.60 1014.91 1015.24 1015.60 1016.00 1016.43 1016.87 1017.27 1017.62 1017.87 1018.03 1018.08 1018.05 1017.96 1017.86 1017.77 1017.74 1017.77 1017.88 1018.04 1018.25 1018.45 1018.63 1018.76 1018.83 1018.83 1018.78
1003.18 1003.50 1003.94 1004.53 1005.26 1006.12 1007.08 1008.10 1009.15 1010.17 1011.12 1011.96 1012.67 1013.26 1013.73 1014.12 1014.47 1014.81 1015.19 1015.62 1016.09 1016.61 1017.13 1017.62 1018.04 1018.35 1018.55 1018.64 1018.62 1018.53 1018.42 1018.33 1018.28 1018.30 1018.39 1018.54 1018.72 1018.90 1019.05 1019.13 1019.14 1019.07 1018.94
1003.39 1003.59 1003.91 1004.40 1005.05 1005.85 1006.79 1007.82 1008.89 1009.94 1010.91 1011.79 1012.53 1013.13 1013.63 1014.04 1014.41 1014.78 1015.20 1015.67 1016.21 1016.79 1017.38 1017.93 1018.41 1018.79 1019.03 1019.15 1019.16 1019.08 1018.98 1018.87 1018.81 1018.81 1018.88 1019.00 1019.14 1019.28 1019.38 1019.41 1019.36 1019.23 1019.03
1003.94 1004.05 1004.29 1004.68 1005.25 1005.99 1006.87 1007.86 1008.91 1009.95 1010.94 1011.82 1012.58 1013.20 1013.71 1014.14 1014.54 1014.94 1015.38 1015.88 1016.45 1017.06 1017.69 1018.28 1018.80 1019.22 1019.50 1019.65 1019.68 1019.63 1019.52 1019.42 1019.34 1019.31 1019.34 1019.42 1019.52 1019.61 1019.66 1019.64 1019.53 1019.35 1019.09
1004.82 1004.90 1005.09 1005.42 1005.91 1006.57 1007.38 1008.31 1009.30 1010.31 1011.27 1012.15 1012.91 1013.55 1014.08 1014.54 1014.95 1015.37 1015.82 1016.33 1016.90 1017.51 1018.14 1018.74 1019.27 1019.70 1020.01 1020.18 1020.23 1020.19 1020.09 1019.97 1019.88 1019.81 1019.80 1019.83 1019.87 1019.91 1019.91 1019.85 1019.71 1019.49 1019.20
1006.01 1006.10 1006.28 1006.58 1007.01 1007.59 1008.32 1009.17 1010.09 1011.03 1011.95 1012.80 1013.56 1014.21 1014.76 1015.24 1015.67 1016.09 1016.54 1017.04 1017.58 1018.17 1018.77 1019.35 1019.86 1020.28 1020.58 1020.76 1020.82 1020.78 1020.68 1020.55 1020.42 1020.32 1020.26 1020.23 1020.22 1020.21 1020.18 1020.09 1019.93 1019.70 1019.41
1007.44 1007.59 1007.79 1008.08 1008.47 1008.99 1009.63 1010.37 1011.20 1012.07 1012.92 1013.74 1014.48 1015.13 1015.69 1016.18 1016.63 1017.06 1017.50 1017.97 1018.48 1019.01 1019.56 1020.08 1020.55 1020.94 1021.22 1021.39 1021.44 1021.40 1021.29 1021.13 1020.97 1020.82 1020.71 1020.63 1020.57 1020.52 1020.46 1020.36 1020.21 1020.00 1019.73
1009.02 1009.26 1009.52 1009.81 1010.17 1010.63 1011.18 1011.82 1012.54 1013.31 1014.08 1014.84 1015.55 1016.19 1016.76 1017.26 1017.72 1018.15 1018.57 1019.01 1019.47 1019.94 1020.42 1020.88 1021.30 1021.63 1021.88 1022.02 1022.05 1021.99 1021.86 1021.68 1021.48 1021.29 1021.12 1020.99 1020.89 1020.81 1020.74 1020.66 1020.54 1020.37 1020.16
1010.69 1011.02 1011.33 1011.64 1011.98 1012.37 1012.83 1013.36 1013.95 1014.61 1015.29 1015.97 1016.62 1017.24 1017.80 1018.31 1018.77 1019.19 1019.60 1020.00 1020.42 1020.83 1021.24 1021.63 1021.98 1022.26 1022.46 1022.57 1022.58 1022.49 1022.34 1022.13 1021.89 1021.66 1021.46 1021.29 1021.16 1021.07 1021.01 1020.95 1020.88 1020.78 1020.64
1012.34 1012.74 1013.10 1013.43 1013.74 1014.06 1014.42 1014.82 1015.29 1015.81 1016.38 1016.96 1017.55 1018.12 1018.66 1019.16 1019.61 1020.03 1020.43 1020.81 1021.18 1021.54 1021.89 1022.22 1022.51 1022.74 1022.90 1022.97 1022.95 1022.84 1022.66 1022.43 1022.18 1021.92 1021.69 1021.50 1021.36 1021.28 1021.24 1021.23 1021.22 1021.19 1021.12
Thickness
5788 5783 5777 5771 5763 5759 5755 5750 5746 5745 5745 5745 5745 5746 5747 5750 5752 5752 5751 5750 5750 5750 5749 5750 5749 5748 5747 5746 5745 5743 5741 5740 5742 5737 5733 5736 5739 5737 5737 5736 5734 5733 5732
5784 5779 5774 5769 5763 5758 5754 5750 5745 5743 5743 5744 5746 5746 5747 5748 5749 5749 5748 5748 5748 5748 5749 5748 5747 5747 5745 5745 5743 5741 5739 5740 5742 5736 5730 5726 5728 5734 5739 5737 5736 5736 5734
5783 5777 5772 5768 5764 5758 5754 5752 5746 5744 5744 5744 5744 5744 5743 5744 5744 5743 5744 5746 5746 5746 5747 5746 5746 5746 5745 5742 5742 5741 5739 5737 5740 5741 5733 5725 5722 5727 5734 5738 5738 5737 5735
5788 5779 5773 5767 5763 5759 5756 5752 5747 5744 5744 5743 5742 5740 5738 5738 5741 5742 5742 5743 5744 5744 5744 5744 5744 5744 5744 5742 5741 5741 5741 5738 5736 5739 5740 5737 5734 5726 5725 5732 5737 5738 5736
5791 5782 5775 5769 5764 5760 5756 5751 5747 5744 5743 5742 5741 5740 5740 5740 5741 5741 5739 5739 5741 5742 5743 5742 5742 5741 5741 5741 5740 5740 5740 5739 5736 5736 5737 5737 5737 5736 5728 5724 5729 5733 5736
5793 5784 5778 5771 5765 5761 5757 5752 5747 5744 5742 5741 5740 5739 5739 5739 5738 5737 5735 5736 5738 5739 5741 5740 5740 5739 5739 5739 5739 5738 5738 5736 5736 5736 5736 5735 5733 5731 5731 5727 5727 5728 5734
5794 5784 5776 5770 5764 5760 5757 5753 5748 5743 5741 5740 5738 5738 5738 5738 5737 5736 5735 5736 5736 5736 5737 5739 5737 5737 5737 5737 5737 5735 5735 5735 5733 5733 5733 5735 5735 5736 5733 5729 5727 5727 5731
5796 5787 5779 5772 5766 5762 5758 5753 5748 5743 5741 5739 5737 5737 5737 5737 5737 5737 5737 5736 5737 5738 5737 5736 5735 5735 5735 5735 5734 5734 5732 5732 5731 5731 5731 5730 5732 5734 5732 5729 5724 5720 5722
5796 5788 5781 5774 5768 5762 5758 5754 5748 5744 5741 5739 5737 5736 5735 5736 5736 5735 5736 5737 5737 5737 5735 5734 5733 5733 5732 5732 5731 5729 5730 5729 5728 5728 5727 5726 5728 5729 5729 5728 5725 5717 5710
5797 5790 5783 5777 5771 5765 5759 5754 5750 5746 5743 5740 5738 5736 5734 5734 5733 5733 5733 5735 5735 5735 5732 5731 5730 5730 5729 5728 5727 5726 5726 5725 5724 5723 5723 5722 5723 5724 5724 5723 5722 5720 5713
5799 5792 5785 5780 5774 5767 5761 5755 5751 5746 5743 5741 5738 5736 5734 5733 5731 5730 5730 5731 5732 5731 5729 5728 5727 5726 5725 5724 5723 5722 5722 5720 5719 5719 5718 5717 5717 5716 5716 5716 5715 5714 5711
5802 5795 5788 5781 5774 5768 5762 5757 5753 5748 5744 5741 5738 5736 5734 5732 5730 5728 5728 5728 5727 5727 5726 5725 5723 5723 5722 5720 5719 5716 5717 5715 5713 5712 5712 5710 5711 5709 5707 5707 5706 5705 5705
5800 5795 5787 5780 5774 5769 5764 5759 5755 5750 5745 5742 5738 5734 5732 5730 5728 5727 5725 5724 5722 5721 5720 5719 5718 5717 5716 5715 5713 5712 5711 5710 5708 5707 5705 5703 5702 5699 5699 5698 5697 5696 5697
5794 5789 5784 5778 5774 5769 5764 5759 5755 5752 5747 5742 5737 5732 5730 5728 5726 5724 5722 5719 5718 5716 5714 5713 5712 5710 5709 5708 5706 5706 5704 5703 5701 5698 5696 5694 5692 5689 5689 5688 5686 5686 5685
5785 5783 5780 5776 5772 5768 5764 5761 5756 5753 5749 5742 5736 5732 5729 5727 5724 5721 5718 5715 5713 5711 5708 5706 5704 5702 5700 5698 5698 5697 5696 5694 5691 5688 5686 5683 5681 5679 5677 5676 5674 5673 5672
5781 5779 5778 5774 5769 5766 5762 5759 5755 5752 5747 5741 5736 5732 5728 5724 5721 5717 5713 5710 5707 5703 5700 5697 5693 5691 5688 5686 5687 5687 5687 5684 5681 5678 5676 5673 5670 5668 5666 5664 5662 5660 5658
5778 5775 5773 5769 5765 5763 5760 5755 5752 5749 5743 5737 5733 5729 5724 5719 5716 5712 5707 5703 5699 5695 5690 5686 5682 5678 5674 5675 5676 5676 5676 5674 5671 5668 5665 5663 5658 5655 5653 5652 5650 5648 5645
5771 5769 5767 5764 5762 5760 5756 5752 5747 5742 5736 5731 5727 5723 5718 5713 5708 5703 5699 5695 5691 5686 5681 5676 5672 5667 5663 5664 5665 5665 5665 5663 5659 5656 5652 5648 5643 5639 5637 5638 5636 5635 5633
5761 5761 5761 5759 5756 5753 5749 5743 5738 5733 5728 5723 5719 5715 5710 5704 5698 5693 5689 5685 5681 5676 5672 5667 5662 5657 5652 5652 5653 5653 5653 5650 5647 5643 5638 5634 5629 5624 5623 5622 5621 5619 5618
5748 5748 5749 5747 5744 5742 5739 5732 5726 5722 5717 5712 5709 5704 5699 5694 5688 5683 5679 5674 5671 5666 5662 5656 5652 5646 5641 5640 5639 5640 5639 5636 5633 5628 5623 5618 5614 5610 5607 5606 5604 5603 5600
5733 5734 5734 5731 5729 5729 5727 5720 5714 5708 5705 5701 5696 5691 5686 5682 5677 5673 5668 5664 5660 5655 5651 5646 5640 5635 5630 5627 5626 5624 5622 5620 5618 5615 5611 5605 5601 5597 5594 5591 5589 5586 5583
5716 5717 5717 5715 5714 5715 5712 5705 5699 5696 5694 5689 5683 5678 5673 5670 5665 5661 5656 5652 5648 5644 5639 5635 5629 5624 5619 5615 5611 5609 5607 5604 5602 5599 5595 5591 5587 5584 5580 5577 5574 5570 5567
5699 5700 5700 5697 5696 5696 5695 5689 5685 5682 5678 5673 5668 5663 5659 5655 5651 5648 5644 5641 5637 5635 5631 5626 5621 5614 5608 5602 5598 5596 5593 5590 5586 5583 5579 5576 5574 5570 5567 5562 5557 5553 5550
5681 5682 5682 5679 5676 5676 5676 5674 5671 5669 5665 5659 5654 5650 5646 5641 5637 5634 5630 5625 5623 5621 5618 5613 5608 5601 5593 5587 5583 5581 5579 5575 5572 5567 5565 5563 5561 5555 5549 5545 5540 5534 5529
5665 5665 5664 5662 5660 5661 5660 5659 5658 5655 5651 5647 5642 5637 5632 5626 5620 5614 5608 5605 5600 5601 5600 5595 5590 5584 5576 5567 5563 5561 5560 5555 5551 5547 5549 5549 5545 5538 5532 5526 5521 5514 5508
5649 5648 5648 5647 5645 5645 5644 5643 5643 5641 5638 5634 5630 5627 5621 5615 5610 5602 5592 5585 5584 5582 5579 5576 5572 5564 5559 5554 5550 5547 5543 5539 5534 5530 5531 5528 5523 5517 5510 5505 5499 5493 5487